N650LA KCHS-KCHS

Flight info

Callsign N650LA
Flight time 0h 39m
Altitude 5000
Route KCHS
Aircraft DN40/L-V/N

Departure

Time 2026-04-29 17:57
Airport Charleston International Airport (KCHS)

Arrival

Time 2026-04-29 18:36
Airport Charleston International Airport (KCHS)
Time Latitude Longitude Altitude Speed Heading
2026-04-29 17:37 32.89963 -80.03225 49 ft 0 kts 329°
2026-04-29 17:52 32.89978 -80.03238 49 ft 8 kts 308°
2026-04-29 17:52 32.89959 -80.03310 49 ft 11 kts 235°
2026-04-29 17:53 32.89901 -80.03358 47 ft 12 kts 204°
2026-04-29 17:53 32.89850 -80.03437 44 ft 9 kts 240°
2026-04-29 17:53 32.89844 -80.03452 44 ft 5 kts 241°
2026-04-29 17:53 32.89853 -80.03506 45 ft 11 kts 326°
2026-04-29 17:54 32.89934 -80.03564 48 ft 15 kts 342°
2026-04-29 17:54 32.90050 -80.03572 52 ft 16 kts
2026-04-29 17:54 32.90084 -80.03569 53 ft 0 kts 355°
2026-04-29 17:55 32.90093 -80.03572 54 ft 7 kts 345°
2026-04-29 17:55 32.90167 -80.03610 53 ft 8 kts 330°
2026-04-29 17:55 32.90162 -80.03654 57 ft 5 kts 212°
2026-04-29 17:55 32.90155 -80.03658 54 ft 0 kts 197°
2026-04-29 17:56 32.90002 -80.03738 49 ft 58 kts 204°
2026-04-29 17:56 32.89558 -80.03954 277 ft 71 kts 203°
2026-04-29 17:56 32.89080 -80.04167 551 ft 72 kts 200°
2026-04-29 17:57 32.88596 -80.04315 766 ft 77 kts 193°
2026-04-29 17:57 32.88057 -80.04445 1005 ft 79 kts 198°
2026-04-29 17:57 32.87407 -80.04527 982 ft 107 kts 189°
2026-04-29 17:57 32.86886 -80.04552 999 ft 113 kts 187°
2026-04-29 17:58 32.85843 -80.04483 1149 ft 115 kts 181°
2026-04-29 17:58 32.85060 -80.04328 1350 ft 115 kts 179°
2026-04-29 17:58 32.84274 -80.04157 1502 ft 115 kts 176°
2026-04-29 17:58 32.83485 -80.03962 1671 ft 114 kts 175°
2026-04-29 17:59 32.82711 -80.03729 1757 ft 119 kts 172°
2026-04-29 17:59 32.81894 -80.03467 1788 ft 123 kts 170°
2026-04-29 17:59 32.81077 -80.03173 1869 ft 121 kts 169°
2026-04-29 17:59 32.80299 -80.02844 2017 ft 118 kts 166°
2026-04-29 18:00 32.79530 -80.02472 2119 ft 121 kts 166°
2026-04-29 18:00 32.78771 -80.02061 2216 ft 124 kts 162°
2026-04-29 18:00 32.77987 -80.01594 2295 ft 127 kts 160°
2026-04-29 18:00 32.77213 -80.01093 2416 ft 126 kts 158°
2026-04-29 18:01 32.76464 -80.00561 2530 ft 126 kts 155°
2026-04-29 18:01 32.75760 -79.99922 2644 ft 132 kts 139°
2026-04-29 18:01 32.75320 -79.98934 2754 ft 144 kts 102°
2026-04-29 18:01 32.75281 -79.97744 2879 ft 145 kts 83°
2026-04-29 18:02 32.75591 -79.96606 3001 ft 144 kts 60°
2026-04-29 18:02 32.75971 -79.95678 2977 ft 111 kts 57°
2026-04-29 18:02 32.76325 -79.94953 2950 ft 97 kts 55°
2026-04-29 18:02 32.76653 -79.94271 2937 ft 92 kts 54°
2026-04-29 18:03 32.76953 -79.93629 2933 ft 86 kts 59°
2026-04-29 18:03 32.77266 -79.93016 2983 ft 93 kts 58°
2026-04-29 18:03 32.77680 -79.92312 3036 ft 111 kts 50°
2026-04-29 18:03 32.78189 -79.91586 3117 ft 120 kts 50°
2026-04-29 18:04 32.78762 -79.90768 3051 ft 137 kts 51°
2026-04-29 18:04 32.79165 -79.89734 3046 ft 143 kts 76°
2026-04-29 18:04 32.79359 -79.88512 2892 ft 154 kts 80°
2026-04-29 18:04 32.79530 -79.87352 2825 ft 131 kts 76°
2026-04-29 18:05 32.79753 -79.86361 2650 ft 121 kts 75°
2026-04-29 18:05 32.79956 -79.85429 2573 ft 103 kts 59°
2026-04-29 18:05 32.80315 -79.84734 2562 ft 108 kts 85°
2026-04-29 18:05 32.80368 -79.83842 2607 ft 109 kts 84°
2026-04-29 18:06 32.80503 -79.83294 2717 ft 95 kts 44°
2026-04-29 18:06 32.80979 -79.82433 2818 ft 99 kts 68°
2026-04-29 18:06 32.81179 -79.81646 2922 ft 98 kts 73°
2026-04-29 18:06 32.81341 -79.80869 3035 ft 102 kts 73°
2026-04-29 18:07 32.81612 -79.79936 2865 ft 129 kts 61°
2026-04-29 18:07 32.82091 -79.79071 2925 ft 118 kts 43°
2026-04-29 18:07 32.82468 -79.78591 2957 ft 118 kts 35°
2026-04-29 18:07 32.83312 -79.77787 2962 ft 118 kts 27°
2026-04-29 18:08 32.83746 -79.77392 2958 ft 119 kts 27°
2026-04-29 18:08 32.84406 -79.76791 2946 ft 120 kts 28°
2026-04-29 18:08 32.85136 -79.76205 2728 ft 132 kts
2026-04-29 18:08 32.85981 -79.76414 2068 ft 126 kts 324°
2026-04-29 18:09 32.86708 -79.76819 1596 ft 112 kts 320°
2026-04-29 18:09 32.87386 -79.77246 1118 ft 109 kts 321°
2026-04-29 18:09 32.88051 -79.77672 663 ft 110 kts 325°
2026-04-29 18:09 32.88772 -79.78026 193 ft 117 kts 341°
2026-04-29 18:10 32.89491 -79.78209 23 ft 98 kts 343°
2026-04-29 18:10 32.90103 -79.78389 80 ft 91 kts 349°
2026-04-29 18:10 32.90664 -79.78461 483 ft 78 kts 359°
2026-04-29 18:10 32.91213 -79.78423 766 ft 81 kts
2026-04-29 18:11 32.91736 -79.78355 1070 ft 79 kts
2026-04-29 18:11 32.92311 -79.78204 1298 ft 91 kts 14°
2026-04-29 18:11 32.92892 -79.77740 1225 ft 109 kts 41°
2026-04-29 18:11 32.93414 -79.77104 1254 ft 107 kts 51°
2026-04-29 18:12 32.93867 -79.76396 1257 ft 108 kts 57°
2026-04-29 18:12 32.94277 -79.75649 1237 ft 108 kts 63°
2026-04-29 18:12 32.94662 -79.74882 1246 ft 108 kts 59°
2026-04-29 18:12 32.95081 -79.74149 1297 ft 108 kts 52°
2026-04-29 18:13 32.95533 -79.73438 1314 ft 108 kts 50°
2026-04-29 18:13 32.96000 -79.72738 1299 ft 108 kts 51°
2026-04-29 18:13 32.96608 -79.72253 1334 ft 105 kts
2026-04-29 18:13 32.97305 -79.72033 1389 ft 104 kts
2026-04-29 18:14 32.98004 -79.71962 1410 ft 100 kts 348°
2026-04-29 18:14 32.98710 -79.71956 1457 ft 101 kts 351°
2026-04-29 18:14 32.99398 -79.71934 1565 ft 98 kts 351°
2026-04-29 18:14 33.00083 -79.71908 1630 ft 99 kts 351°
2026-04-29 18:15 33.00733 -79.72006 1664 ft 89 kts 314°
2026-04-29 18:15 33.00923 -79.72611 1679 ft 80 kts 275°
2026-04-29 18:15 33.00971 -79.73251 1709 ft 77 kts 256°
2026-04-29 18:15 33.00783 -79.73830 1770 ft 74 kts 242°
2026-04-29 18:16 33.00551 -79.74373 1835 ft 73 kts 245°
2026-04-29 18:16 33.00335 -79.74921 1899 ft 73 kts 245°
2026-04-29 18:16 33.00128 -79.75468 1952 ft 72 kts 246°
2026-04-29 18:16 32.99926 -79.76018 1987 ft 72 kts 246°
2026-04-29 18:17 32.99729 -79.76561 2028 ft 72 kts 246°
2026-04-29 18:17 32.99530 -79.77113 2038 ft 72 kts 247°
2026-04-29 18:17 32.99335 -79.77665 2067 ft 72 kts 247°
2026-04-29 18:17 32.99139 -79.78218 2194 ft 73 kts 247°
2026-04-29 18:18 32.98946 -79.78777 2405 ft 73 kts 249°
2026-04-29 18:18 32.98750 -79.79331 2629 ft 73 kts 247°
2026-04-29 18:18 32.98538 -79.79933 2679 ft 85 kts 248°
2026-04-29 18:18 32.98305 -79.80597 2693 ft 87 kts 248°
2026-04-29 18:19 32.98066 -79.81280 2692 ft 92 kts 247°
2026-04-29 18:19 32.97810 -79.82011 2690 ft 99 kts 249°
2026-04-29 18:19 32.97543 -79.82776 2689 ft 100 kts 249°
2026-04-29 18:19 32.97282 -79.83523 2685 ft 97 kts 247°
2026-04-29 18:20 32.97025 -79.84256 2682 ft 95 kts 248°
2026-04-29 18:20 32.96775 -79.84971 2673 ft 91 kts 247°
2026-04-29 18:20 32.96535 -79.85655 2673 ft 88 kts 248°
2026-04-29 18:20 32.96301 -79.86324 2672 ft 87 kts 248°
2026-04-29 18:21 32.96070 -79.86983 2671 ft 85 kts 247°
2026-04-29 18:21 32.95844 -79.87627 2672 ft 84 kts 247°
2026-04-29 18:21 32.95624 -79.88257 2672 ft 83 kts 247°
2026-04-29 18:21 32.95406 -79.88879 2671 ft 80 kts 248°
2026-04-29 18:22 32.95191 -79.89490 2671 ft 80 kts 248°
2026-04-29 18:22 32.95255 -79.90114 2672 ft 85 kts 294°
2026-04-29 18:22 32.95447 -79.90743 2671 ft 81 kts 280°
2026-04-29 18:22 32.95637 -79.91371 2664 ft 81 kts 283°
2026-04-29 18:23 32.95925 -79.91969 2667 ft 85 kts 292°
2026-04-29 18:23 32.96237 -79.92575 2670 ft 86 kts 291°
2026-04-29 18:23 32.96550 -79.93183 2670 ft 85 kts 291°
2026-04-29 18:23 32.96857 -79.93774 2670 ft 84 kts 291°
2026-04-29 18:24 32.97210 -79.94336 2665 ft 91 kts 313°
2026-04-29 18:24 32.97839 -79.94573 2664 ft 100 kts 342°
2026-04-29 18:24 32.98540 -79.94618 2662 ft 103 kts 348°
2026-04-29 18:24 32.99263 -79.94617 2666 ft 106 kts 348°
2026-04-29 18:25 33.00004 -79.94625 2674 ft 108 kts 347°
2026-04-29 18:25 33.00763 -79.94624 2681 ft 110 kts 349°
2026-04-29 18:25 33.01517 -79.94647 2677 ft 107 kts 348°
2026-04-29 18:25 33.02251 -79.94676 2678 ft 105 kts 348°
2026-04-29 18:26 33.02983 -79.94700 2674 ft 105 kts 347°
2026-04-29 18:26 33.03719 -79.94716 2680 ft 107 kts 347°
2026-04-29 18:26 33.04457 -79.94719 2676 ft 107 kts 347°
2026-04-29 18:26 33.05196 -79.94732 2673 ft 104 kts 340°
2026-04-29 18:27 33.05896 -79.94904 2663 ft 108 kts 350°
2026-04-29 18:27 33.06479 -79.95242 2653 ft 87 kts 287°
2026-04-29 18:27 33.06295 -79.95803 2656 ft 85 kts 210°
2026-04-29 18:27 33.05673 -79.95674 2658 ft 96 kts 174°
2026-04-29 18:28 33.05040 -79.95429 2663 ft 95 kts 177°
2026-04-29 18:28 33.04416 -79.95371 2669 ft 86 kts 202°
2026-04-29 18:28 33.03872 -79.95621 2673 ft 85 kts 213°
2026-04-29 18:28 33.03315 -79.95895 2674 ft 86 kts 212°
2026-04-29 18:29 33.02776 -79.96200 2675 ft 85 kts 213°
2026-04-29 18:29 33.02419 -79.96398 2675 ft 85 kts 212°
2026-04-29 18:29 33.01704 -79.96796 2677 ft 85 kts 213°
2026-04-29 18:29 33.01145 -79.97088 2672 ft 90 kts 213°
2026-04-29 18:30 33.00595 -79.97377 2544 ft 85 kts 212°
2026-04-29 18:30 33.00038 -79.97693 2247 ft 89 kts 214°
2026-04-29 18:30 32.99464 -79.97993 1984 ft 88 kts 213°
2026-04-29 18:30 32.98970 -79.98226 1953 ft 69 kts 212°
2026-04-29 18:31 32.98512 -79.98445 1737 ft 73 kts 212°
2026-04-29 18:31 32.98077 -79.98674 1669 ft 64 kts 212°
2026-04-29 18:31 32.97679 -79.98884 1667 ft 60 kts 217°
2026-04-29 18:31 32.97363 -79.99173 1732 ft 59 kts 226°
2026-04-29 18:32 32.97047 -79.99518 1772 ft 64 kts 219°
2026-04-29 18:32 32.96218 -80.00004 1687 ft 65 kts 210°
2026-04-29 18:32 32.95798 -80.00181 1681 ft 65 kts 208°
2026-04-29 18:33 32.95368 -80.00361 1724 ft 64 kts 213°
2026-04-29 18:33 32.94973 -80.00601 1698 ft 67 kts 218°
2026-04-29 18:33 32.94562 -80.00901 1458 ft 69 kts 210°
2026-04-29 18:33 32.94161 -80.01201 1259 ft 68 kts 212°
2026-04-29 18:34 32.93733 -80.01498 979 ft 75 kts 206°
2026-04-29 18:34 32.93431 -80.01689 834 ft 72 kts 206°
2026-04-29 18:34 32.92941 -80.02017 738 ft 54 kts 204°
2026-04-29 18:34 32.92559 -80.02285 690 ft 73 kts 203°
2026-04-29 18:35 32.92124 -80.02617 710 ft 68 kts 202°
2026-04-29 18:35 32.91683 -80.02847 534 ft 69 kts 198°
2026-04-29 18:35 32.91253 -80.03062 401 ft 67 kts 198°
2026-04-29 18:35 32.90807 -80.03302 281 ft 73 kts 192°
2026-04-29 18:36 32.90387 -80.03523 143 ft 62 kts 200°
2026-04-29 18:36 32.90020 -80.03729 57 ft 54 kts 197°
2026-04-29 18:36 32.89708 -80.03878 47 ft 44 kts 198°
2026-04-29 18:36 32.89456 -80.04021 47 ft 38 kts 207°
2026-04-29 18:37 32.89287 -80.04092 46 ft 8 kts 105°
2026-04-29 18:37 32.89259 -80.03991 47 ft 17 kts 98°
2026-04-29 18:37 32.89244 -80.03895 47 ft 1 kts 103°
2026-04-29 18:37 32.89231 -80.03836 45 ft 14 kts 105°
2026-04-29 18:38 32.89208 -80.03685 42 ft 18 kts 97°
2026-04-29 18:38 32.89186 -80.03618 41 ft 11 kts 144°
2026-04-29 18:38 32.89177 -80.03513 42 ft 16 kts 98°
2026-04-29 18:38 32.89156 -80.03407 41 ft 15 kts 101°
2026-04-29 18:39 32.89171 -80.03354 40 ft 0 kts 57°
2026-04-29 18:39 32.89188 -80.03320 39 ft 13 kts 55°
2026-04-29 18:39 32.89234 -80.03244 37 ft 8 kts 71°
2026-04-29 18:40 32.89253 -80.03191 37 ft 7 kts 39°
2026-04-29 18:40 32.89328 -80.03182 39 ft 19 kts
2026-04-29 18:40 32.89477 -80.03160 42 ft 22 kts
2026-04-29 18:40 32.89602 -80.03167 43 ft 14 kts 331°
2026-04-29 18:41 32.89809 -80.03368 44 ft 15 kts 28°
2026-04-29 18:41 32.89892 -80.03316 47 ft 12 kts 30°
2026-04-29 18:42 32.89940 -80.03236 48 ft 9 kts 58°
2026-04-29 18:42 32.89950 -80.03223 48 ft 2 kts 28°
2026-04-29 18:42 32.89960 -80.03224 49 ft 0 kts 341°
2026-04-29 18:42 32.89962 -80.03224 49 ft 0 kts 335°